Regional Weather Roundup
Issued by NWS

Home | Current Version | Previous Version | Graphics & Text | Print | Product List | Glossary On
Versions: 1 2 3 4 5 6 7 8 9 10 11 12 13 14 15 16 17 18 19 20 21 22 23 24 25 26 27 28 29 30 31 32 33 34 35 36 37 38 39 40 41 42 43 44 45 46 47 48 49 50
206
ASUS44 KJAN 210710
RWRMS

MISSISSIPPI HOURLY WEATHER ROUNDUP
NATIONAL WEATHER SERVICE JACKSON MS
200 AM CDT TUE APR 21 2015

NOTE: "FAIR: INDICATES FEW OR NO CLOUDS BELOW 12,000 FEET WITH NO
SIGNIFICANT WEATHER AND/OR OBSTRUCTIONS TO VISIBILITY.

MSZ001>002-007>008-010>013-018>021-025>028-034>036-210800-
NORTHWEST MISSISSIPPI

CITY           SKY/WX    TMP DP  RH WIND       PRES   REMARKS
CLARKSDALE     FAIR      54  45  71 NW5       30.01S
CLEVELAND      FAIR      55  48  78 N7        29.99S
GREENWOOD      CLEAR     48  45  89 CALM      29.99R
GREENVILLE     CLEAR     54  44  69 NW6       29.99S
OLIVE BRANCH   CLEAR     50  37  62 W3        29.98F
OXFORD         FAIR      43  41  93 CALM      30.00S
TUNICA         SUNNY     52  43  71 W3        30.00S
$$

MSZ003>006-009-014>017-022>024-029>033-037>039-210800-
NORTHEAST MISSISSIPPI

CITY           SKY/WX    TMP DP  RH WIND       PRES   REMARKS
COLUMBUS AFB   CLEAR     48  47  99 CALM      29.96S
CORINTH        PTSUNNY   48  45  87 CALM      29.96S
GOLDN TRIANGLE CLEAR     48  45  87 CALM      29.96F
STARKVILLE     FAIR      45  45 100 CALM      29.97S
TUPELO         CLEAR     52  43  71 NW6       29.96S
$$

MSZ040-058-210800-
CENTRAL MISSISSIPPI

CITY           SKY/WX    TMP DP  RH WIND       PRES   REMARKS
JACKSON INTL   PTCLDY    51  49  92 CALM      29.97F
JACKSON HAWKNS PTCLDY    53  49  86 CALM      29.98F
MERIDIAN KEY   PTCLDY    50  48  93 CALM      29.97S
MERIDIAN NAS   PTCLDY    50  47  89 NW3       29.97F
RAYMOND        FAIR      52  46  82 MISG      29.98S HAZE
VICKSBURG      PTCLDY    52  50  93 CALM      30.00S
$$

MSZ059>079-210800-
SOUTH MISSISSIPPI

CITY           SKY/WX    TMP DP  RH WIND       PRES   REMARKS
BROOKHAVEN       N/A     52  52 100 CALM      30.00S
HATTIESBURG    CLEAR     53  50  89 CALM      29.98S
MCCOMB         CLEAR     52  51  97 CALM      29.99S
NATCHEZ        MOCLDY    54  48  82 CALM      30.00S
PINE BELT      CLEAR     52  46  82 CALM      29.98S
$$

MSZ080>082-210800-
COASTAL MISSISSIPPI

CITY           SKY/WX    TMP DP  RH WIND       PRES   REMARKS
BILOXI         PTCLDY    61  52  71 VRB2      29.96R
PASCAGOULA     CLEAR     57  53  86 CALM      29.96F
GULFPORT       PTCLDY    60  50  69 N6        29.96S
$$



USA.gov is the U.S. government's official web portal to all federal, state and local government web resources and services.